Preview of NWS' New Version of Forecast
This preview is not operational and should not be used for support decisions.

Regional Weather Roundup (RWR)

Issued by National Weather Service (NWS)

                            
000
ASUS43 KDTX 231401
RWRMI 
MICHIGAN HOURLY REGIONAL WEATHER ROUNDUP
NATIONAL WEATHER SERVICE DETROIT/PONTIAC MI
900 AM EST SAT FEB 23 2019

NOTE: "FAIR" INDICATES FEW OR NO CLOUDS BELOW 12,000 FEET WITH NO
SIGNIFICANT WEATHER AND/OR OBSTRUCTION TO VISIBILITY.

MIZ047>049-052>055-059>063-066>070-074>076-081>083-231500-
SOUTHEAST LOWER MICHIGAN
  
CITY           SKY/WX    TMP DP  RH WIND       PRES   REMARKS
ADRIAN         CLOUDY    31  25  78 E12       30.19F WCI  22          
ALMA           CLOUDY    30  23  77 E12       30.23F WCI  20          
ANN ARBOR      CLOUDY    30  24  78 NE7       30.21S WCI  23          
BAD AXE        CLOUDY    29  25  84 SE6       30.28R WCI  23          
CARO           CLOUDY    30  25  79 E8G16     30.25S WCI  23          
DETROIT CITY   CLOUDY    30  24  78 E8        30.24F WCI  22          
DETROIT        CLOUDY    32  23  69 NE8       30.23F WCI  25          
FLINT          CLOUDY    30  23  75 E8        30.22F WCI  22          
GROSSE ILE     CLOUDY    31  27  86 NE9       30.22S WCI  22          
HILLSDALE      CLOUDY    32  24  73 E13       30.14F WCI  23          
HOWELL         CLOUDY    32  23  70 E6        30.20S WCI  26          

CITY           SKY/WX    TMP DP  RH WIND       PRES   REMARKS
JACKSON        CLOUDY    32  24  72 E10       30.16F WCI  24          
LAMBERTVILLE   CLOUDY    32  28  84 E10       30.19F WCI  24          
LANSING        CLOUDY    30  24  78 E9        30.19F WCI  22          
LAPEER         CLOUDY    30  22  72 SE7       30.24F WCI  23          
MASON          CLOUDY    31  24  74 E7        30.19F WCI  25          
MONROE         CLOUDY    32  29  89 E7        30.20F WCI  26          
PONTIAC        CLOUDY    30  23  75 E7        30.20F WCI  23          
PORT HOPE        N/A     30  26  85 SE13      30.29R WCI  20          
PORT HURON     CLOUDY    30  25  80 E7        30.27F WCI  23          
TRI CITIES     CLOUDY    30  24  78 E12       30.26F WCI  20          
MIDLAND        CLOUDY    30  25  83 E8        30.25F WCI  22          
TROY           CLOUDY    30  22  72 NE9       30.25F WCI  21          
SAGINAW HB     CLOUDY    30  25  80 E5        30.26S WCI  25          
$$
MIZ043>046-050>051-056>058-064>065-071>073-077>080-231500-
SOUTHWEST LOWER MICHIGAN
  
CITY           SKY/WX    TMP DP  RH WIND       PRES   REMARKS
BATTLE CREEK   CLOUDY    32  23  69 E8        30.13F WCI  25          
BENTON HARBOR  CLOUDY    36  25  64 E15G24    30.07F WCI  27          
BIG RAPIDS     CLOUDY    30  23  76 E10       30.17F WCI  21          
COLDWATER      CLOUDY    35  26  68 E12       30.13F WCI  27          
FREMONT        CLOUDY    32  22  67 E9G17     30.14S WCI  24          
HOLLAND        PTSUNNY   32  22  66 E14       30.11F WCI  22          
GRAND RAPIDS   PTSUNNY   30  22  72 E18       30.14F HAZE    WCI  18  
IONIA          CLOUDY    29  21  72 E12G18    30.16F WCI  19          
KALAMAZOO      CLOUDY    34  24  67 E10       30.12F WCI  26          
LUDINGTON      CLOUDY    32  21  64 E15G22    30.12F WCI  22          
MARSHALL       CLOUDY    32  26  76 E14       30.14F WCI  22          
MOUNT PLEASANT CLOUDY    31  22  72 E10       30.23S WCI  22          
MUSKEGON       CLOUDY    33  21  61 E14       30.13F WCI  23          
SOUTH HAVEN    PTSUNNY   35  24  65 SE13G18   30.09F WCI  26          
$$
MIZ016>042-231500-
NORTHERN LOWER MICHIGAN
  
CITY           SKY/WX    TMP DP  RH WIND       PRES   REMARKS
ALPENA         PTSUNNY   26  25  96 CALM      30.29F                  
BEAVER ISLAND  LGT SNOW  28  24  84 E7        30.24F WCI  21          
BELLAIRE       CLOUDY    31  22  69 CALM      30.23F                  
CADILLAC       CLOUDY    28  21  76 E14       30.16F WCI  17          
CHARLEVOIX     CLOUDY    29  22  75 E7        30.25F WCI  22          
FRANKFORT      CLOUDY    32  22  66 E5        30.20S WCI  27          
GAYLORD        PTSUNNY   26  22  84 SE9       30.23S WCI  17          
HARBOR SPRINGS CLOUDY    28  22  78 E10       30.24F WCI  18          
HOUGHTON LAKE  CLOUDY    28  22  78 E12       30.22F WCI  18          
MANISTEE       CLOUDY    32  24  72 E10       30.16F WCI  24          
OSCODA         CLOUDY    30  24  78 E9        30.30S WCI  22          
PELLSTON       CLOUDY    24  21  88 SE5       30.26F WCI  18          
ROGERS CITY    CLOUDY    28  25  87 SE7       30.30S WCI  21          
TRAVERSE CITY  CLOUDY    32  23  69 E6        30.20F WCI  26          
$$
MIZ007>008-015-231500-
EASTERN UPPER MICHIGAN
  
CITY           SKY/WX    TMP DP  RH WIND       PRES   REMARKS
KINROSS        CLOUDY    23  21  92 E13       30.27F WCI  11          
MACKINAC ISLAN CLOUDY    29  26  89 E7        30.26F WCI  21          
NEWBERRY       CLOUDY    24  22  92 MISG      30.23F                  
S. S. MARIE    CLOUDY    25  22  88 E6        30.28F WCI  18          
MUNISING         N/A     26  22  84 S7        30.21F WCI  18          
$$
MIZ004>006-011>014-085-231500-
CENTRAL UPPER MICHIGAN
  
CITY           SKY/WX    TMP DP  RH WIND       PRES   REMARKS
MANISTIQUE     LGT SNOW  28  23  80 E9        30.24R WCI  20          
ESCANABA       HVY SNOW  25  23  92 NE6       30.21F VSB 1/4 WCI  18  
MENOMINEE      CLOUDY    28  26  92 E13       30.17F WCI  17          
SAWYER-GWINN   LGT SNOW  25  23  93 SE6       30.16F WCI  18          
$$
MIZ001>003-009>011-084-231500-
WESTERN UPPER MICHIGAN
  
CITY           SKY/WX    TMP DP  RH WIND       PRES   REMARKS
IRON MOUNTAIN  SNOW      24  22  91 SE6       30.14F VSB 1/2 WCI  17  
HOUGHTON       LGT SNOW  28  25  88 E12       30.12F FOG     WCI  18  
COPPER HARBOR    N/A     30  27  88 S8        30.17F WCI  22          
IRONWOOD       LGT SNOW  27  25  92 SE14      30.06F FOG     WCI  16  
$$

ABBREVIATIONS USED IN REMARKS
   TC - TEMPERATURE IN CELSIUS
  WCI - WIND CHILL INDEX
   HX - HEAT INDEX
  VSB - VISIBILITY